Location: Possagno
(45.8500°N, 11.8667°E)
Time: 21:50:06
(UTC+00:00)

Resurs 1-4 Rocket - Pass Details

Date: 07 October 2020
Orbit: 800 x 813 km, 98.6° (Epoch: 27 October)

Event Time Altitude Azimuth Distance (km) Brightness Sun altitude
Rises 01:26:34 0° 9° (N) 3,335 5.9 -38.8°
Reaches altitude 10° 01:28:58 10° 5° (N) 2,402 5.0 -38.5°
Enters shadow 01:29:56 16° 1° (N) 2,039 4.5 -38.4°
